Tracking 30264 objects as of 15-Feb-2025
HD Live streaming from Space Station
objects crossing your sky now

STARLINK-4325

Track STARLINK-4325 now!
10-day predictions
STARLINK-4325 is classified as:


NORAD ID: 53068
Int'l Code: 2022-077AB
Perigee: 569.1 km
Apogee: 571.2 km
Inclination: 97.7 °
Period: 95.9 minutes
Semi major axis: 6941 km
RCS: Unknown
Launch date: July 11, 2022
Source: United States (US)
Launch site: AIR FORCE WESTERN TEST RANGE (AFWTR)
Your satellite tracking list
Your tracking list is empty




NASA's NSSDC Master Catalog

Two Line Element Set (TLE):
1 53068U 22077AB  25046.49438307  .00000074  00000-0  10319-4 0  9994
2 53068  97.6548 229.8549 0001509  75.9521 284.1871 15.01253882142829
Source of the keplerian elements: AFSPC